FW0810 Weather Reports


Display with metric or nautical units.
time (UTC)temp
F
wind
direction
speed
MPH
gust
MPH
rain 1hr
in
rain 24hr
in
rain mn
in
humidity
%
barometer
mb
20260508202840 0 0.0 0.0 0.00 0.51 0.51 1019.4
20260508202339 0 0.0 0.0 0.00 0.51 0.51 1019.4
20260508201827 0 0.0 0.0 0.00 0.51 0.51 1019.4
20260508201322 0 0.0 0.0 0.00 0.51 0.51 1019.4
20260508200729 0 0.0 0.0 0.00 0.51 0.51 1019.4
20260508195128 0 0.0 0.0 0.00 0.51 0.51 1019.2
20260508194531 0 0.0 0.0 0.00 0.51 0.51 1019.1
20260508194031 0 0.0 0.0 0.00 0.51 0.51 1019.1
20260508193437 0 0.0 0.0 0.00 0.51 0.51 1019.0
20260508192925 0 0.0 0.0 0.00 0.51 0.51 1018.8
20260508192422 0 0.0 0.0 0.00 0.51 0.51 1018.8
20260508191827 0 0.0 0.0 0.00 0.51 0.51 1018.7
20260508185628 0 0.0 0.0 0.00 0.51 0.51 1018.5
20260508185129 0 0.0 0.0 0.00 0.51 0.51 1018.4
20260508184032 0 0.0 0.0 0.00 0.51 0.51 1018.3
20260508183525 0 0.0 0.0 0.00 0.51 0.51 1018.2
20260508182934 0 0.0 0.0 0.00 0.51 0.51 1018.2
20260508181836 0 0.0 0.0 0.00 0.51 0.51 1017.9
20260508181332 0 0.0 0.0 0.00 0.51 0.51 1017.9
20260508180731 0 0.0 0.0 0.00 0.51 0.51 1017.9
20260508180232 0 0.0 0.0 0.00 0.51 0.51 1018.0
20260508175730 0 0.0 0.0 0.01 0.51 0.51 1017.8
20260508175139 0 0.0 0.0 0.02 0.51 0.51 1017.8
20260508174628 0 0.0 0.0 0.02 0.51 0.51 1017.8
20260508173532 59 334 0.0 0.0 0.03 0.51 0.51 92 1017.9
20260508173021 59 334 0.0 0.0 0.04 0.51 0.51 92 1017.8
20260508172459 59 334 0.0 0.0 0.05 0.51 0.51 92 1017.8
20260508171957 59 335 0.0 0.0 0.06 0.51 0.51 92 1017.8
20260508171456 59 335 0.0 0.0 0.06 0.51 0.51 92 1017.8
20260508170956 59 335 0.0 0.0 0.07 0.51 0.51 92 1017.8
20260508165953 60 271 0.0 0.0 0.08 0.50 0.50 92 1017.6
20260508165452 59 271 0.0 3.0 0.09 0.50 0.50 92 1017.6
20260508164950 59 278 0.0 3.0 0.09 0.50 0.50 92 1017.6
20260508164450 59 264 0.0 0.0 0.09 0.49 0.49 92 1017.6
20260508163448 59 225 0.0 0.0 0.10 0.48 0.48 91 1017.7
20260508162951 59 224 0.0 0.0 0.11 0.47 0.47 91 1017.7
20260508162446 59 114 0.0 0.0 0.13 0.46 0.46 91 1017.7
20260508161947 59 114 0.0 0.0 0.14 0.46 0.46 91 1017.8
20260508161446 59 114 0.0 0.0 0.17 0.45 0.45 91 1017.8
20260508160948 59 114 0.0 0.0 0.19 0.44 0.44 91 1017.8
20260508160443 59 114 0.0 0.0 0.20 0.43 0.43 91 1017.8
20260508155442 59 114 0.0 0.0 0.24 0.42 0.42 91 1017.6
20260508154456 60 114 0.0 0.0 0.27 0.39 0.40 90 1017.5
20260508153940 60 114 0.0 0.0 0.28 0.39 0.39 90 1017.4
20260508153440 60 114 0.0 0.0 0.29 0.38 0.39 90 1017.5
20260508152942 60 114 0.0 0.0 0.30 0.36 0.37 90 1017.5
20260508152441 60 114 0.0 0.0 0.29 0.34 0.35 90 1017.4
20260508151952 60 114 0.0 0.0 0.28 0.31 0.31 89 1017.4
20260508151453 60 114 0.0 0.0 0.27 0.28 0.28 89 1017.4
20260508150940 60 114 0.0 0.0 0.24 0.25 0.25 90 1017.4
20260508150440 60 118 0.0 0.0 0.23 0.23 0.23 89 1017.3
20260508145939 59 118 0.0 0.0 0.20 0.20 0.20 89 1017.1
20260508145440 60 119 0.0 0.0 0.17 0.17 0.18 88 1017.1
20260508144941 60 119 0.0 0.0 0.15 0.15 0.16 87 1017.2
20260508144441 60 118 0.0 2.0 0.13 0.13 0.13 87 1017.3
20260508143438 60 92 3.0 10.0 0.08 0.08 0.09 84 1017.2
20260508142936 61 90 2.0 10.0 0.06 0.06 0.07 83 1017.0
20260508142436 62 104 1.0 7.0 0.05 0.05 0.05 81 1016.9
20260508141451 64 159 2.0 11.0 0.02 0.02 0.02 78 1016.6
20260508140936 66 79 3.0 11.0 0.01 0.01 0.01 75 1016.8
20260508140436 68 172 2.0 10.0 0.00 0.00 0.00 69 1016.5
20260508135938 69 149 1.0 10.0 0.00 0.00 0.00 65 1016.3
20260508135437 70 104 0.0 5.0 0.00 0.00 0.00 65 1016.1
20260508134935 70 323 1.0 5.0 0.00 0.00 0.00 65 1015.7
20260508134434 70 278 1.0 6.0 0.00 0.00 0.00 64 1015.6
20260508133936 70 359 2.0 6.0 0.00 0.00 0.00 64 1015.6
20260508133432 70 278 2.0 7.0 0.00 0.00 0.00 63 1015.5
20260508132432 70 284 2.0 7.0 0.00 0.00 0.00 61 1015.2
20260508130932 71 271 1.0 10.0 0.00 0.00 0.00 60 1015.3
20260508130434 70 288 2.0 10.0 0.00 0.00 0.00 60 1015.3
20260508125932 70 269 1.0 6.0 0.00 0.00 0.00 58 1015.3
20260508125430 71 351 1.0 4.0 0.00 0.00 0.00 57 1015.3
20260508124932 71 313 2.0 11.0 0.00 0.00 0.00 56 1015.3
20260508124429 72 294 3.0 11.0 0.00 0.00 0.00 56 1015.3
20260508123429 73 335 2.0 8.0 0.00 0.00 0.00 58 1015.2
20260508122924 73 343 2.0 8.0 0.00 0.00 0.00 57 1015.3
20260508122425 74 277 2.0 8.0 0.00 0.00 0.00 56 1015.2
20260508121924 74 323 1.0 6.0 0.00 0.00 0.00 55 1015.2
20260508121424 75 276 0.0 3.0 0.00 0.00 0.00 54 1015.2
20260508120924 75 96 0.0 3.0 0.00 0.00 0.00 52 1015.1
20260508120424 75 137 0.0 2.0 0.00 0.00 0.00 54 1015.1
20260508115923 76 137 0.0 2.0 0.00 0.00 0.00 52 1015.1
20260508115423 76 102 0.0 3.0 0.00 0.00 0.00 50 1015.1
20260508114922 76 102 0.0 3.0 0.00 0.00 0.00 50 1015.1
20260508114420 76 129 0.0 2.0 0.00 0.00 0.00 51 1015.0
20260508113917 76 129 0.0 4.0 0.00 0.00 0.00 50 1015.2
20260508113415 76 101 1.0 4.0 0.00 0.00 0.00 50 1015.2
20260508112914 76 112 0.0 4.0 0.00 0.00 0.00 52 1015.2
20260508112413 75 136 0.0 2.0 0.00 0.00 0.00 52 1015.1
20260508111909 75 105 1.0 4.0 0.00 0.00 0.00 55 1015.2
20260508111409 74 109 1.0 4.0 0.00 0.00 0.00 54 1015.2
20260508110907 75 100 0.0 3.0 0.00 0.00 0.00 53 1015.2
20260508110407 74 90 0.0 3.0 0.00 0.00 0.00 55 1015.2
20260508105907 74 127 0.0 5.0 0.00 0.00 0.00 56 1015.3
20260508105407 74 128 0.0 5.0 0.00 0.00 0.00 55 1015.3
20260508104358 74 91 1.0 6.0 0.00 0.00 0.00 56 1015.4
20260508103850 74 89 0.0 4.0 0.00 0.00 0.00 58 1015.4
20260508103343 74 108 0.0 4.0 0.00 0.00 0.00 57 1015.5
20260508102837 74 146 0.0 4.0 0.00 0.00 0.00 59 1015.5
20260508102332 73 161 0.0 4.0 0.00 0.00 0.00 58 1015.6
20260508101319 73 131 1.0 5.0 0.00 0.00 0.00 58 1015.6
20260508100815 73 159 1.0 5.0 0.00 0.00 0.00 57 1015.4
20260508095801 73 142 1.0 5.0 0.00 0.00 0.00 60 1015.4
20260508095256 73 68 1.0 7.0 0.00 0.00 0.00 56 1015.4
20260508094751 74 98 0.0 5.0 0.00 0.00 0.00 58 1015.4
20260508094245 74 104 1.0 7.0 0.00 0.00 0.00 58 1015.5
20260508093737 74 87 1.0 7.0 0.00 0.00 0.00 57 1015.3
20260508093232 74 76 0.0 5.0 0.00 0.00 0.00 59 1015.4
20260508092723 73 117 0.0 4.0 0.00 0.00 0.00 60 1015.4
20260508092220 73 124 1.0 5.0 0.00 0.00 0.00 61 1015.4
20260508091712 72 110 1.0 5.0 0.00 0.00 0.00 61 1015.4
20260508091204 72 92 1.0 4.0 0.00 0.00 0.00 61 1015.3
20260508090659 71 115 1.0 4.0 0.00 0.00 0.00 62 1015.4
20260508090153 71 115 0.0 4.0 0.00 0.00 0.00 63 1015.3
20260508085646 71 118 1.0 7.0 0.00 0.00 0.00 62 1015.3
20260508085141 71 104 1.0 7.0 0.00 0.00 0.00 62 1015.3
20260508084635 71 92 1.0 7.0 0.00 0.00 0.00 63 1015.3
20260508084130 70 86 2.0 7.0 0.00 0.00 0.00 62 1015.2
20260508082611 70 100 2.0 7.0 0.00 0.00 0.00 64 1015.1
20260508082105 70 119 2.0 7.0 0.00 0.00 0.00 64 1015.2
20260508081559 70 69 2.0 7.0 0.00 0.00 0.00 65 1015.2
20260508080559 71 136 2.0 6.0 0.00 0.00 0.00 64 1015.1
20260508075055 69 123 1.0 5.0 0.00 0.00 0.00 66 1015.0
20260508074555 69 115 1.0 6.0 0.00 0.00 0.00 67 1015.0
20260508074055 69 110 1.0 7.0 0.00 0.00 0.00 67 1015.0
20260508073557 68 88 1.0 7.0 0.00 0.00 0.00 67 1015.0
20260508073051 67 84 1.0 5.0 0.00 0.00 0.00 69 1014.8
20260508072551 67 127 1.0 4.0 0.00 0.00 0.00 70 1014.8
20260508071551 65 269 0.0 0.0 0.00 0.00 0.00 76 1014.8
20260508071049 64 270 0.0 0.0 0.00 0.00 0.00 78 1014.7
20260508070549 63 270 0.0 0.0 0.00 0.00 0.00 81 1014.8
20260508070101 62 270 0.0 0.0 0.00 0.00 0.00 83 1014.7
20260508065552 62 270 0.0 0.0 0.00 0.00 0.00 84 1014.7
20260508065049 61 270 0.0 0.0 0.00 0.00 0.00 85 1014.7
20260508064547 61 270 0.0 1.0 0.00 0.00 0.00 85 1014.7
20260508064043 60 276 0.0 3.0 0.00 0.00 0.00 86 1014.7
20260508063557 60 274 0.0 3.0 0.00 0.00 0.00 87 1014.6
20260508063041 59 273 0.0 1.0 0.00 0.00 0.00 87 1014.6
20260508062541 59 272 0.0 0.0 0.00 0.00 0.00 88 1014.6
20260508062041 58 272 0.0 0.0 0.00 0.00 0.00 88 1014.6
20260508061540 58 269 0.0 2.0 0.00 0.00 0.00 89 1014.5
20260508061037 57 269 0.0 2.0 0.00 0.00 0.00 89 1014.6
20260508060551 57 283 0.0 2.0 0.00 0.00 0.00 89 1014.6
20260508060037 56 285 0.0 3.0 0.00 0.00 0.00 89 1014.5
20260508055536 56 288 0.0 3.0 0.00 0.00 0.00 90 1014.5
20260508055035 56 264 0.0 1.0 0.00 0.00 0.00 90 1014.5
20260508054535 55 265 0.0 2.0 0.00 0.00 0.00 91 1014.4
20260508054037 55 266 0.0 4.0 0.00 0.00 0.00 91 1014.4
20260508053529 54 278 0.0 4.0 0.00 0.00 0.00 91 1014.5
20260508053029 54 281 0.0 3.0 0.00 0.00 0.00 91 1014.4
20260508052029 53 262 0.0 4.0 0.00 0.00 0.00 91 1014.4
20260508051531 53 263 1.0 6.0 0.00 0.00 0.00 91 1014.4
20260508051029 53 282 0.0 6.0 0.00 0.00 0.00 91 1014.4
20260508050030 52 283 0.0 3.0 0.00 0.00 0.00 91 1014.3
20260508045530 52 265 0.0 4.0 0.00 0.00 0.00 91 1014.3
20260508045026 52 278 0.0 4.0 0.00 0.00 0.00 91 1014.3
20260508044525 52 278 0.0 3.0 0.00 0.00 0.00 91 1014.3
20260508043525 51 286 0.0 3.0 0.00 0.00 0.00 91 1014.2
20260508043026 51 281 1.0 4.0 0.00 0.00 0.00 91 1014.2
20260508042525 51 279 1.0 5.0 0.00 0.00 0.00 90 1014.2
20260508041028 51 281 0.0 2.0 0.00 0.00 0.00 90 1014.1
20260508040522 51 286 0.0 2.0 0.00 0.00 0.00 91 1014.0
20260508040021 51 278 0.0 2.0 0.00 0.00 0.00 91 1014.1
20260508035523 51 274 1.0 4.0 0.00 0.00 0.00 91 1014.0
20260508034524 51 274 0.0 4.0 0.00 0.00 0.00 91 1014.0
20260508034018 51 279 1.0 4.0 0.00 0.00 0.00 91 1014.0
20260508033019 51 273 0.0 4.0 0.00 0.00 0.00 91 1013.9
20260508032517 51 273 0.0 3.0 0.00 0.00 0.00 90 1014.0
20260508031514 51 278 0.0 4.0 0.00 0.00 0.00 90 1013.9
20260508031012 51 284 1.0 4.0 0.00 0.00 0.00 90 1013.9
20260508030515 51 266 0.0 3.0 0.00 0.00 0.00 91 1013.9
20260508030013 50 278 0.0 2.0 0.00 0.00 0.00 91 1013.9
20260508025512 50 276 0.0 2.0 0.00 0.00 0.00 90 1014.0
20260508025009 51 269 0.0 0.0 0.00 0.00 0.00 90 1014.0
20260508024505 51 268 0.0 4.0 0.00 0.00 0.00 90 1013.9
20260508023958 51 267 0.0 4.0 0.00 0.00 0.00 90 1014.0
20260508023450 51 276 0.0 3.0 0.00 0.00 0.00 90 1014.1
20260508022944 51 280 1.0 5.0 0.00 0.00 0.00 90 1014.1
20260508022441 51 281 1.0 5.0 0.00 0.00 0.00 89 1014.1
20260508021933 51 279 0.0 2.0 0.00 0.00 0.00 89 1014.1
20260508021427 51 277 0.0 4.0 0.00 0.00 0.00 90 1014.1
20260508020920 51 278 0.0 4.0 0.00 0.00 0.00 89 1014.2
20260508020414 51 270 0.0 3.0 0.00 0.00 0.00 90 1014.2
20260508015908 52 266 0.0 2.0 0.00 0.00 0.00 90 1014.4
20260508015403 52 269 0.0 0.0 0.00 0.00 0.00 90 1014.5
20260508014858 52 269 0.0 0.0 0.00 0.00 0.00 90 1014.4
20260508014351 52 269 0.0 3.0 0.00 0.00 0.00 90 1014.5
20260508013844 52 273 0.0 3.0 0.00 0.00 0.00 90 1014.6
20260508013338 52 271 0.0 4.0 0.00 0.00 0.00 90 1014.7
20260508012845 52 278 0.0 4.0 0.00 0.00 0.00 90 1014.6
20260508012328 52 279 0.0 4.0 0.00 0.00 0.00 90 1014.7
20260508011825 52 280 0.0 4.0 0.00 0.00 0.00 90 1014.7
20260508010325 52 276 0.0 3.0 0.00 0.02 0.00 90 1014.9
20260508005820 52 273 0.0 6.0 0.00 0.03 0.00 90 1014.8
20260508005319 52 274 0.0 6.0 0.00 0.03 0.00 90 1014.8
20260508004816 51 274 0.0 3.0 0.00 0.03 0.00 90 1014.9
20260508004315 51 269 0.0 5.0 0.00 0.03 0.00 90 1014.8
20260508003813 51 285 0.0 5.0 0.00 0.03 0.00 90 1014.9
20260508003312 51 274 1.0 5.0 0.00 0.05 0.00 90 1015.0
20260508002811 51 277 1.0 5.0 0.00 0.06 0.00 90 1015.0
20260508002310 51 271 1.0 5.0 0.00 0.06 0.00 89 1015.1
20260508001809 51 274 1.0 5.0 0.00 0.07 0.00 89 1015.1
20260508001308 51 262 1.0 5.0 0.00 0.08 0.00 89 1015.2
20260508000307 52 267 0.0 4.0 0.00 0.09 0.00 89 1015.2
20260507235805 52 270 0.0 1.0 0.00 0.09 0.00 89 1015.2
20260507235307 52 267 0.0 2.0 0.00 0.09 0.00 89 1015.2
20260507233757 52 274 1.0 4.0 0.00 0.09 0.00 89 1015.4
20260507233252 52 270 0.0 4.0 0.00 0.09 0.00 89 1015.4
20260507232754 52 266 1.0 5.0 0.00 0.09 0.00 89 1015.4
20260507232252 52 281 1.0 5.0 0.00 0.10 0.00 88 1015.5
20260507231752 52 272 1.0 5.0 0.00 0.10 0.00 88 1015.5
20260507231251 52 279 0.0 5.0 0.00 0.10 0.00 88 1015.6
20260507230750 53 266 0.0 4.0 0.00 0.10 0.00 87 1015.7
20260507230249 53 270 1.0 5.0 0.00 0.10 0.00 87 1015.7
20260507225748 54 277 0.0 5.0 0.00 0.10 0.00 87 1016.1
20260507225247 54 265 0.0 4.0 0.00 0.10 0.00 88 1016.1
20260507224746 54 266 0.0 4.0 0.00 0.10 0.00 88 1016.3
20260507224246 53 266 0.0 3.0 0.00 0.10 0.00 88 1016.2
20260507223745 53 269 1.0 4.0 0.00 0.10 0.00 88 1016.3
20260507223242 53 263 1.0 4.0 0.00 0.10 0.00 88 1016.4
20260507222745 53 270 0.0 4.0 0.00 0.10 0.00 88 1016.3
20260507222242 53 264 0.0 4.0 0.00 0.10 0.00 88 1016.2
20260507221237 53 276 0.0 4.0 0.00 0.10 0.00 87 1016.1
20260507220749 53 281 1.0 4.0 0.00 0.10 0.00 87 1016.1
20260507215736 54 289 0.0 5.0 0.00 0.10 0.10 86 1016.1
20260507215237 54 272 1.0 5.0 0.00 0.10 0.10 85 1016.2
20260507214736 55 276 1.0 5.0 0.00 0.10 0.10 85 1016.0
20260507214238 55 269 0.0 4.0 0.00 0.10 0.10 85 1016.0
20260507213735 56 269 0.0 0.0 0.00 0.10 0.10 85 1016.0
20260507213232 56 269 0.0 0.0 0.00 0.10 0.10 85 1016.0
20260507212733 56 269 0.0 0.0 0.00 0.10 0.10 85 1016.0
20260507212233 56 269 0.0 0.0 0.00 0.10 0.10 85 1016.1
20260507211731 56 269 0.0 5.0 0.00 0.10 0.10 85 1016.0
20260507211229 56 274 0.0 5.0 0.00 0.10 0.10 85 1016.0
20260507210731 56 274 0.0 3.0 0.00 0.10 0.10 85 1016.0
20260507210228 56 274 1.0 4.0 0.00 0.10 0.10 85 1016.1
20260507205727 56 282 0.0 4.0 0.00 0.10 0.10 84 1016.0
20260507205226 57 266 0.0 1.0 0.00 0.10 0.10 84 1016.0
20260507204727 57 261 0.0 1.0 0.00 0.10 0.10 84 1016.0
20260507204227 57 248 0.0 3.0 0.00 0.10 0.10 84 1016.0
20260507203727 57 246 1.0 3.0 0.00 0.10 0.10 84 1015.8
20260507203226 57 270 1.0 3.0 0.00 0.10 0.10 83 1015.8